sat.trackr.live / text

‹ back to catalog

GOSAT (IBUKI)

NORAD 33492 · 2009-002A

PAYLOAD ACTIVE UNKNOWN

§ Identity

Operator
Country
JPN
Launch date
2009-01-23
Launch site
TANSC
Launch vehicle
Mass (kg)
RCS (m²)
4.65

Purposes: earth_obs

External: N2YO · Heavens-Above · Gunter

§ Orbital elements

Epoch: 2026-09-20T02:47:19.242816Z

Period
98.12 min
Inclination
98.0963°
Eccentricity
0.0001571
Mean motion
14.67534170 rev/d
Perigee alt
667.8 km
Apogee alt
670.1 km
Semi-major
7,047.1 km
B*
6.0730e-5
RAAN
13.0415°
Arg perigee
94.1708°
Mean anomaly
265.9676°
Rev number
94,538

§ Raw data

GOSAT (IBUKI)1 33492U 09002A   26263.11619494  .00000296  00000+0  60730-4 0  99922 33492  98.0963  13.0415 0001571  94.1708 265.9676 14.67534170945383

JSON: /api/v1/satellites/33492 · /tle

For live sub-satellite position, see the globe view (requires WebGL).

§ Visibility from observer

Set your observer location to see the next 7 days of passes ≥ 10°. The values pass through the URL so the page stays shareable.

No JS? Fill the form by hand. The geolocation button needs JavaScript.

§ Radio — SatNOGS DB

ModeDescriptionDownlinkUplink
FM S-band telemetry 2.220 GHz

1 transmitter · refreshed weekly from db.satnogs.org